Lincoln, NE

1:42 PM CST on November 12, 2019 (GMT -0600)
Lincoln Municipal

Weather History for KLNK - August, 2019

Change the Weather History Date:

Thursday, August 1, 2019

  Actual Average Record
Temperature  
Mean Temperature 77 °F 77 °F  
Max Temperature 86 °F 89 °F 105 °F (1987)
Min Temperature 68 °F 66 °F 48 °F (1898)
Degree Days  
Heating Degree Days 0 0  
Month to date heating degree days 0 0  
Since 1 June heating degree days 6 17  
Since 1 July heating degree days 0 1  
Cooling Degree Days 12 12  
Month to date cooling degree days 12 12  
Year to date cooling degree days 758 723  
Since 1 June cooling degree days 686 644  
Growing Degree Days 27 (Base 50)    
Moisture  
Dew Point 66 °F    
Average Humidity 74    
Maximum Humidity 84    
Minimum Humidity 63    
Precipitation  
Precipitation 0.00 in 0.11 in 2.39 in (1981)
Month to date precipitation 0.00 0.11  
Year to date precipitation 21.87 18.20  
Snow  
Snow 0.00 in 0.00 in 0.00 in (2006)
Month to date snowfall 0.0 0.0  
Since 1 June snowfall 0.0 0.0  
Since 1 July snowfall 0.0 0.0  
Snow Depth 0.00 in    
Sea Level Pressure  
Sea Level Pressure 30.07 in    
Wind  
Wind Speed 11 mph (SE)    
Max Wind Speed 18 mph    
Max Gust Speed 23 mph    
Visibility 10 miles    
Events      
T = Trace of Precipitation, MM = Missing Value Source: NWS Daily Summary

Daily Weather History Graph

Daily Weather History Graph

Search for Another Location

Airport or City:

Astronomy

Aug. 01, 2019 Rise Set
Actual Time 6:23 AM CDT 8:42 PM CDT
Civil Twilight 5:52 AM CDT 9:13 PM CDT
Nautical Twilight 5:14 AM CDT 9:51 PM CDT
Astronomical Twilight 4:32 AM CDT 10:33 PM CDT
Moon 6:49 AM CDT (8/1) 9:30 PM CDT (8/1)
Length of Visible Light 15h 21m
Length of Day
14h 19m
New Moon, 1% of the Moon is Illuminated
Aug 1
New Moon
Aug 7
First Quarter
Aug 15
Full
Aug 23
Last Quarter
Aug 30
New

Hourly Weather History & Observations

Time (CDT) Temp. Heat Index Dew Point Humidity Pressure Visibility Wind Dir Wind Speed Gust Speed Precip Events Conditions
12:54 AM 70.0 °F - 64.0 °F 81% 30.04 in 10.0 mi East 8.1 mph - N/A   Mostly Cloudy
1:54 AM 70.0 °F - 64.0 °F 81% 30.05 in 10.0 mi East 8.1 mph - N/A   Overcast
2:54 AM 68.0 °F - 63.0 °F 84% 30.06 in 10.0 mi ESE 12.7 mph - N/A   Scattered Clouds
3:05 AM 68.0 °F - 63.0 °F 84% 30.08 in 10.0 mi ESE 8.1 mph - N/A   Mostly Cloudy
3:54 AM 68.0 °F - 63.0 °F 84% 30.06 in 10.0 mi SE 10.4 mph - N/A   Overcast
4:54 AM 68.0 °F - 63.0 °F 84% 30.06 in 10.0 mi ESE 13.8 mph - N/A   Overcast
5:54 AM 69.1 °F - 63.0 °F 81% 30.07 in 10.0 mi SE 12.7 mph - N/A   Overcast
6:54 AM 69.1 °F - 63.0 °F 81% 30.09 in 10.0 mi SE 9.2 mph - N/A   Overcast
7:09 AM 69.1 °F - 63.0 °F 81% 30.11 in 10.0 mi SE 9.2 mph - N/A   Overcast
7:54 AM 70.0 °F - 64.0 °F 81% 30.10 in 10.0 mi SSE 6.9 mph - N/A   Overcast
8:39 AM 71.1 °F - 64.0 °F 78% 30.12 in 10.0 mi SE 8.1 mph - N/A   Overcast
8:47 AM 71.1 °F - 64.0 °F 78% 30.12 in 10.0 mi SSE 9.2 mph - N/A   Overcast
8:54 AM 71.1 °F - 64.9 °F 81% 30.10 in 10.0 mi SSE 10.4 mph - N/A   Overcast
9:54 AM 73.0 °F - 64.9 °F 76% 30.11 in 10.0 mi SSE 12.7 mph - N/A   Overcast
10:54 AM 77.0 °F - 66.9 °F 71% 30.10 in 10.0 mi South 16.1 mph - N/A   Mostly Cloudy
11:54 AM 78.1 °F - 66.9 °F 68% 30.10 in 10.0 mi SE 9.2 mph - N/A   Overcast
12:54 PM 82.0 °F 84.9 °F 68.0 °F 62% 30.09 in 10.0 mi East 11.5 mph - N/A   Mostly Cloudy
1:54 PM 81.0 °F 84.1 °F 69.1 °F 67% 30.08 in 10.0 mi ESE 8.1 mph - N/A   Mostly Cloudy
2:54 PM 82.0 °F 85.9 °F 70.0 °F 67% 30.07 in 10.0 mi SE 10.4 mph - N/A   Overcast
3:54 PM 82.0 °F 85.9 °F 70.0 °F 67% 30.06 in 10.0 mi SE 11.5 mph - N/A   Overcast
4:54 PM 82.9 °F 86.5 °F 69.1 °F 63% 30.05 in 10.0 mi SE 9.2 mph - N/A   Mostly Cloudy
5:54 PM 82.9 °F 86.5 °F 69.1 °F 63% 30.04 in 10.0 mi ESE 13.8 mph - N/A   Mostly Cloudy
6:54 PM 82.0 °F 85.5 °F 69.1 °F 65% 30.04 in 10.0 mi ESE 13.8 mph - N/A   Mostly Cloudy
7:54 PM 81.0 °F 84.4 °F 70.0 °F 69% 30.04 in 10.0 mi ESE 10.4 mph - N/A   Overcast
8:54 PM 80.1 °F 82.9 °F 69.1 °F 69% 30.05 in 10.0 mi East 9.2 mph - N/A   Overcast
9:54 PM 79.0 °F - 68.0 °F 69% 30.07 in 10.0 mi ESE 13.8 mph - N/A   Overcast
10:54 PM 78.1 °F - 66.9 °F 68% 30.08 in 10.0 mi ESE 11.5 mph - N/A   Overcast
11:54 PM 77.0 °F - 66.9 °F 71% 30.08 in 10.0 mi ESE 15.0 mph - N/A   Scattered Clouds